Flag for Senegal Weather past 2 weeks in Thiès, Senegal

82 °F

Passing clouds.

Feels Like: 92 °F
Forecast: 79 / 94 °F
Wind: 3 mph from Northwest

Location: Dakar / Yoff

Current Time: Oct 9, 2015 at 5:53:05 AM

Latest Report: Oct 9, 2015 at 5:30 AM

Visibility: N/A

Pressure: 29.89 "Hg

Humidity: 89%

Dew point: 79 °F

Location of ThièsLocation

Historic Weather in Thiès — Graph


Thiès temperature yesterday

Maximum temperature yesterday: 91 °F (at 2:30 PM)
Minimum temperature yesterday: 79 °F (at 1:00 AM)
Average temperature yesterday: 84 °F

Past Weeks' High & Low Weather Summary

High91 °F (Oct 3, 4:00 PM)100% (Sep 24, 4:00 AM)30.01 "Hg (Sep 24, 4:00 AM)
Low75 °F (Sep 27, 3:00 AM)63% (Sep 27, 12:00 PM)29.77 "Hg (Sep 28, 3:30 PM)
Average84 °F85%29.88 "Hg
* Reported Sep 24 4:00 AM — Oct 9 4:30 AM, Thiès, Weather by CustomWeather, © 2015

Note: Actual official high and low records may vary slightly from our data, if they occured in-between our weather recording intervals... More about our weather records


Thiès weather history for previous 24 hours

Time TempWeatherWind HumidityBarometerVisibility
4:30 AM
Fri, Oct 9
82 °FPassing clouds.3 mph89%29.86 "HgN/A
4:00 AM82 °FPassing clouds.6 mph89%29.86 "HgN/A
3:30 AM82 °FPassing clouds.5 mph89%29.89 "HgN/A
3:00 AM82 °FPassing clouds.3 mph89%29.89 "HgN/A
2:30 AM82 °FPassing clouds.2 mph89%29.92 "HgN/A
2:00 AM82 °FPassing clouds.3 mph89%29.92 "HgN/A
1:30 AM82 °FPassing clouds.3 mph89%29.92 "HgN/A
1:00 AM82 °FPassing clouds.3 mph89%29.92 "HgN/A
12:30 AM82 °FPassing clouds.1 mph89%29.95 "HgN/A
12:00 AM82 °FPassing clouds.1 mph89%29.95 "HgN/A
11:30 PM
Thu, Oct 8
84 °FPassing clouds.2 mph84%29.95 "HgN/A
11:00 PM84 °FPassing clouds.2 mph84%29.95 "HgN/A
10:30 PM84 °FPassing clouds.5 mph84%29.95 "HgN/A
10:00 PM84 °FPassing clouds.5 mph84%29.95 "HgN/A
9:30 PM84 °FPassing clouds.3 mph84%29.92 "HgN/A
9:00 PM84 °FPassing clouds.5 mph84%29.92 "HgN/A
8:30 PM84 °FPassing clouds.5 mph84%29.92 "HgN/A
8:00 PM84 °FPassing clouds.2 mph84%29.92 "HgN/A
7:30 PM84 °FPassing clouds.2 mph84%29.92 "HgN/A
7:00 PM84 °FPassing clouds.5 mph84%29.89 "HgN/A
6:30 PM86 °FPassing clouds.5 mph79%29.89 "HgN/A
6:00 PM86 °FPassing clouds.5 mph79%29.89 "HgN/A
5:30 PM86 °FPassing clouds.7 mph79%29.89 "HgN/A
5:00 PM86 °FPassing clouds.7 mph79%29.86 "HgN/A
4:30 PM88 °FPassing clouds.6 mph70%29.89 "HgN/A
4:00 PM90 °FPassing clouds.6 mph71%29.89 "HgN/A
3:30 PM90 °FPassing clouds.3 mph71%29.89 "HgN/A
3:00 PM91 °FPassing clouds.6 mph80%29.89 "HgN/A
2:30 PM91 °FPassing clouds.6 mph67%29.89 "HgN/A
2:00 PM88 °FPassing clouds.6 mph75%29.89 "Hg5 mi
1:30 PM88 °FPassing clouds.5 mph75%29.92 "Hg5 mi
1:00 PM88 °FPassing clouds.3 mph75%29.92 "Hg5 mi
12:30 PM88 °FPassing clouds.5 mph75%29.95 "Hg5 mi
12:00 PM88 °FPassing clouds.No wind75%29.95 "Hg5 mi
11:30 AM88 °FPassing clouds.1 mph75%29.95 "Hg5 mi
11:00 AM88 °FPassing clouds.5 mph75%29.95 "Hg5 mi
10:30 AM86 °FPassing clouds.5 mph79%29.95 "Hg5 mi
10:00 AM86 °FClear.3 mph79%29.95 "Hg5 mi
9:30 AM82 °FClear.3 mph89%29.95 "Hg5 mi
9:00 AM82 °FPassing clouds.No wind89%29.92 "Hg5 mi
8:30 AM79 °FPassing clouds.No wind100%29.92 "Hg5 mi
8:00 AM79 °FPassing clouds.No wind100%29.92 "Hg5 mi
7:30 AM79 °FPassing clouds.No wind94%29.89 "Hg5 mi
7:00 AM79 °FPassing clouds.No wind94%29.89 "Hg5 mi
6:30 AM79 °FPassing clouds.No wind94%29.89 "HgN/A
6:00 AM79 °FPassing clouds.No wind94%29.89 "HgN/A
5:30 AM79 °FPassing clouds.2 mph94%29.89 "HgN/A
5:00 AM79 °FPassing clouds.1 mph94%29.89 "HgN/A
Weather by CustomWeather, © 2015

See weather overviewHow to use our weather pages